Location: Butte
(46.0040°N, 112.5340°W)
Time: 10:37:37
(UTC-06:00)

Daily predictions for brighter satellites

Satellite Brightness Start Highest point End
(mag) Time Altitude Azimuth Time Altitude Azimuth Time Altitude Azimuth
Cosmos 1939 Rocket 3.0 21:40:09 10° S 21:44:00 77° WSW 21:47:54 10° NNW
Cosmos 2184 Rocket 4.3 21:38:40 10° NNW 21:45:01 73° W 21:51:15 10° S
Aureole 3 Rocket 3.5 21:41:47 10° SSW 21:47:24 76° W 21:51:27 10° N
ASTEX 1 3.5 21:42:34 10° SSE 21:47:25 67° E 21:52:17 10° N
Meteor 2-4 Rocket 3.9 21:45:08 10° S 21:50:51 89° W 21:56:45 10° N
H-2A R/B 4.4 21:50:56 10° E 21:52:47 12° ENE 21:54:39 10° NNE
Resurs 01 Rocket 4.0 21:50:31 10° SW 21:53:59 22° W 21:57:29 10° NW
Intercosmos 24 3.7 21:57:47 10° N 22:01:38 88° W 22:05:11 10° S
Helios 1A 4.2 21:58:05 10° S 22:02:05 41° W 22:06:05 10° NNW
Cosmos 1980 Rocket 3.6 21:57:31 10° N 22:02:19 27° NE 22:07:05 10° ESE
SL-27 R/B 4.1 22:02:29 10° SW 22:05:57 40° WNW 22:09:25 10° N
ARGOS 3.5 22:02:35 10° SE 22:07:49 53° ENE 22:13:06 10° N
Tiangong 2 1.4 22:05:26 10° WSW 22:08:31 46° S 22:11:33 10° ESE
Cosmos 2228 3.6 22:04:50 10° N 22:08:57 42° ENE 22:12:42 12° SSE
Cosmos 921 Rocket 3.1 22:05:00 10° NNW 22:09:30 79° ENE 22:13:51 10° SSE
Cosmos 1441 Rocket 4.2 22:06:08 10° SSW 22:09:44 47° WNW 22:13:23 10° N
Cosmos 1624 Rocket 4.3 22:04:48 10° NNW 22:10:04 68° WSW 22:15:20 10° S
Nadezhda 1 Rocket 4.4 22:05:59 10° SSW 22:12:20 70° W 22:18:45 10° N
Cosmos 2322 Rocket 4.3 22:10:12 10° N 22:13:36 16° NE 22:17:00 10° ENE
Helios 1B rocket 3.6 22:09:50 10° N 22:13:49 47° WNW 22:17:47 10° SW
H-2A R/B 2.5 22:18:38 13° SE 22:22:48 44° ENE 22:27:38 10° N
MetOp-B 4.2 22:17:47 10° SSE 22:23:08 87° ENE 22:28:32 10° NNW
SL-8 Rocket 4.2 22:17:02 10° N 22:23:13 58° ENE 22:28:51 13° SSE
NOSS 8 (E) 4.5 22:20:00 10° SSW 22:23:24 62° SE 22:27:12 10° NE
NOAA 11 4.2 22:18:11 10° SSE 22:23:38 86° WSW 22:29:06 10° NNW
TELKOM 3 3.7 22:21:41 10° WNW 22:23:53 45° SSW 22:25:39 18° SE
Lacrosse 5 rocket 3.5 22:25:19 10° NW 22:29:13 26° NNE 22:33:08 10° ENE
Cosmos 2056 Rocket 4.2 22:24:44 10° NNW 22:29:42 49° WSW 22:34:36 10° S
Cosmos 2366 rocket 4.4 22:24:11 10° N 22:30:08 48° ENE 22:34:58 15° SE
Meteor 1-4 Rocket 3.0 22:26:53 10° N 22:30:21 43° ENE 22:32:35 19° SE
Cosmos 1892 Rocket 3.6 22:27:33 10° S 22:32:00 89° E 22:36:25 10° N
YAOGAN 6 4.3 22:30:13 10° SSW 22:33:18 29° W 22:36:25 10° NNW
Cosmos 1602 Rocket 4.3 22:34:30 17° SSE 22:37:13 34° E 22:41:09 10° NNE
Terra 2.9 22:34:23 15° ESE 22:37:36 32° ENE 22:41:50 10° N
Cosmos 1606 Rocket 4.5 22:36:02 10° NNW 22:40:11 45° W 22:44:18 10° SSW
Cosmos 2278 4.2 22:36:34 10° NNW 22:42:09 57° WSW 22:47:06 13° S
Cosmos 2082 Rocket 2.2 22:36:36 10° SSW 22:42:12 66° ESE 22:47:50 10° NNE
Cosmos 1420 Rocket 4.1 22:40:21 10° NNW 22:45:36 67° ENE 22:49:16 20° SE
SPOT 5 2.8 22:46:34 15° S 22:50:07 67° WSW 22:54:32 10° NNW
COSMOS 2487 3.0 22:47:29 10° SSW 22:51:00 61° WNW 22:54:34 10° NNE
Cosmos 1656 4.0 22:50:26 10° NNW 22:55:49 61° WSW 22:59:56 17° S
Cosmos 1697 Rocket 2.7 22:51:51 10° NNW 22:57:30 82° WSW 23:01:23 21° SSE
SL-08 RB Rocket 3.9 22:54:26 17° S 22:57:52 68° WSW 23:02:21 10° NNW
Meteor 1-22 Rocket 4.1 22:52:40 10° N 22:58:00 72° E 23:01:39 21° SSE
ISS -2.0 22:56:31 10° WNW 22:59:35 34° N 23:02:38 10° ENE
Cosmos 1809 Rocket 4.4 22:54:50 10° N 23:00:58 86° E 23:05:32 19° S
Cosmos 1452 Rocket 3.8 22:56:20 10° NNW 23:01:33 63° WSW 23:05:20 19° S
USA 245 3.7 23:02:01 20° SW 23:03:03 28° W 23:05:06 10° NW
Lacrosse 5 3.8 23:04:37 13° E 23:04:37 13° E 23:05:52 10° E
CARTOSAT-1 3.9 23:01:11 25° SE 23:03:30 53° ENE 23:07:42 10° N
Cosmos 2360 4.4 23:00:50 10° NNW 23:06:32 63° ENE 23:10:05 23° SE
SL-16 R/B 3.4 23:02:28 10° N 23:07:31 31° NE 23:11:25 15° ESE
Cosmos 2058 Rocket 4.3 23:05:09 10° NNW 23:09:14 37° W 23:13:06 11° SSW
SL-08 R/B 4.4 23:03:19 10° N 23:09:28 88° W 23:13:55 20° S
Orbus 7S? 4.3 23:03:05 10° NW 23:11:01 65° NNE 23:13:30 22° ESE
IGS 5A 3.6 23:09:04 28° SE 23:11:03 59° ENE 23:15:10 10° N
Timation 2 Rocket 3.9 23:05:53 10° SSW 23:12:10 67° ESE 23:18:15 10° NNE
ATLAS CENTAUR R/B 2.8 23:09:32 10° NNW 23:12:40 25° NE 23:14:46 16° E
Cosmos 2218 Rocket 4.1 23:07:34 10° NNW 23:13:43 73° W 23:18:29 18° S
Cosmos 1271 Rocket 2.9 23:10:22 10° N 23:14:13 58° ENE 23:15:47 33° SE
SPOT 1/Viking Rocket 3.9 23:10:46 18° S 23:14:34 59° WSW 23:19:41 10° NNW
Cosmos 1833 Rocket 2.8 23:09:19 10° SSW 23:14:55 77° WNW 23:20:36 10° NNE
Cosmos 1842 3.7 23:14:11 32° SE 23:15:26 43° E 23:19:12 10° NNE
NOSS 3-1 (C) 4.5 23:08:29 10° NW 23:15:43 55° NE 23:22:15 16° ESE
Meteor 2-16 Rocket 4.4 23:12:17 10° N 23:18:27 77° E 23:22:17 25° SSE
SL-19 R/B 4.3 23:15:22 10° NNE 23:20:35 53° ESE 23:23:18 26° SSE
CZ-4C R/B 4.4 23:21:17 24° E 23:22:20 29° ENE 23:25:32 10° N
Cosmos 1544 3.2 23:19:23 10° N 23:22:58 57° E 23:24:00 39° SE
H-2A R/B 2.1 23:25:55 31° SSE 23:28:06 90° SW 23:32:39 10° NNW
Cosmos 1812 Rocket 3.6 23:23:59 10° NNW 23:28:29 77° W 23:30:40 30° S
Cosmos 1626 Rocket 4.3 23:35:57 17° SSW 23:39:07 49° WNW 23:43:20 10° N
Nadezhda 3 Rocket 4.0 23:38:29 27° S 23:42:09 71° E 23:48:29 10° NNE
Cosmos 158 Rocket 4.0 23:38:28 18° SSW 23:42:32 85° WNW 23:47:58 10° NNE
USA 229 DEB 3.9 23:36:05 10° NW 23:43:09 66° WSW 23:47:09 28° SSE
USA 229 3.9 23:36:11 10° NW 23:43:15 67° WSW 23:47:15 28° SSE
Tiangong 2 2.8 23:42:07 10° W 23:43:46 23° WSW 23:43:46 23° WSW
Cosmos 2360 Rocket 3.7 23:40:26 10° N 23:45:13 27° NE 23:49:04 14° E
CZ-4 R/B 3.9 23:40:10 10° NNE 23:45:13 71° ESE 23:47:28 33° S
Cosmos 972 Rocket 4.2 23:40:37 10° NNW 23:45:46 56° ENE 23:47:46 33° SE
Cosmos 1953 2.4 23:41:44 10° N 23:45:49 65° E 23:46:52 45° SE
Cosmos 1980 Rocket 2.5 23:41:08 10° NNW 23:46:40 56° WSW 23:49:22 29° S
PSLV R/B 3.2 23:49:23 57° W 23:49:23 57° W 23:52:09 10° NNW
NOSS 3-1 (A) 4.3 23:42:26 10° NW 23:49:48 64° NE 23:55:37 21° ESE
Cosmos 1766 4.3 23:48:19 10° NNW 23:51:57 37° W 23:53:28 26° SW
Cosmos 1953 Rocket 3.8 23:51:43 42° SE 23:52:50 55° E 23:57:12 10° NNE
Cosmos 1825 Rocket 3.4 23:51:37 44° S 23:52:56 76° E 23:57:16 10° NNE
CZ-4B R/B 3.5 23:47:51 10° NNE 23:52:57 70° ESE 23:55:10 35° S
Cosmos 1821 Rocket 4.1 23:47:13 10° N 23:53:31 69° E 23:56:33 33° SSE
